EIN464 EIDW-LMML

Flight info

Callsign EIN464
Flight time N/A
Altitude 33000
Route ENDEQ3J ENDEQ Q36 EPOXI L15 KEPAD L151 MID UL612 BOGNA/N0453F350 UL612 OGULO DCT OKASI DCT OKEKO DCT MOU DCT MADIV DCT MOKIP DCT TUFTA DCT KOGAS DCT MEDAM DCT NITAM DCT MOGBO DCT KONER DCT RUVIP DCT MARON/N0399F190 L12 GZO
Aircraft A320/M-SDE3FGHIRWY/LB1

Departure

Time 2026-05-05 10:27
Airport Dublin Airport (EIDW)

Arrival

Time N/A
Airport Malta International Airport (LMML)
Time Latitude Longitude Altitude Speed Heading
2026-05-05 09:21 53.42265 -6.23895 218 ft 0 kts 27°
2026-05-05 10:15 53.42260 -6.23899 214 ft 3 kts 27°
2026-05-05 10:15 53.42244 -6.23914 215 ft 3 kts 25°
2026-05-05 10:15 53.42230 -6.23920 217 ft 3 kts 315°
2026-05-05 10:15 53.42218 -6.23891 211 ft 3 kts 297°
2026-05-05 10:16 53.42208 -6.23857 213 ft 3 kts 297°
2026-05-05 10:16 53.42200 -6.23833 211 ft 0 kts 297°
2026-05-05 10:18 53.42204 -6.23846 211 ft 3 kts 297°
2026-05-05 10:19 53.42222 -6.23905 216 ft 8 kts 297°
2026-05-05 10:19 53.42253 -6.24010 216 ft 12 kts 292°
2026-05-05 10:19 53.42224 -6.24152 216 ft 16 kts 223°
2026-05-05 10:19 53.42158 -6.24311 215 ft 18 kts 267°
2026-05-05 10:20 53.42169 -6.24524 213 ft 18 kts 275°
2026-05-05 10:20 53.42193 -6.24725 216 ft 18 kts 306°
2026-05-05 10:20 53.42307 -6.24822 212 ft 20 kts 336°
2026-05-05 10:20 53.42431 -6.24912 214 ft 19 kts 336°
2026-05-05 10:21 53.42547 -6.24996 214 ft 17 kts 336°
2026-05-05 10:21 53.42654 -6.25073 213 ft 16 kts 337°
2026-05-05 10:21 53.42734 -6.25193 215 ft 16 kts 314°
2026-05-05 10:21 53.42842 -6.25278 219 ft 19 kts 336°
2026-05-05 10:22 53.42963 -6.25365 211 ft 18 kts 336°
2026-05-05 10:22 53.43075 -6.25447 211 ft 17 kts 336°
2026-05-05 10:22 53.43190 -6.25529 215 ft 19 kts 336°
2026-05-05 10:22 53.43311 -6.25618 217 ft 18 kts 336°
2026-05-05 10:23 53.43407 -6.25572 215 ft 18 kts 83°
2026-05-05 10:23 53.43396 -6.25357 211 ft 18 kts 95°
2026-05-05 10:23 53.43384 -6.25146 218 ft 18 kts 95°
2026-05-05 10:23 53.43373 -6.24940 211 ft 18 kts 95°
2026-05-05 10:24 53.43362 -6.24732 214 ft 19 kts 95°
2026-05-05 10:24 53.43349 -6.24509 211 ft 19 kts 95°
2026-05-05 10:24 53.43337 -6.24290 211 ft 18 kts 95°
2026-05-05 10:24 53.43326 -6.24089 211 ft 16 kts 95°
2026-05-05 10:25 53.43318 -6.23934 215 ft 11 kts 86°
2026-05-05 10:25 53.43354 -6.23858 214 ft 7 kts 13°
2026-05-05 10:25 53.43411 -6.23850 210 ft 10 kts
2026-05-05 10:25 53.43481 -6.23887 211 ft 12 kts 302°
2026-05-05 10:26 53.43494 -6.24018 211 ft 11 kts 275°
2026-05-05 10:26 53.43509 -6.24296 211 ft 52 kts 275°
2026-05-05 10:26 53.43563 -6.25276 213 ft 115 kts 275°
2026-05-05 10:26 53.43653 -6.26912 220 ft 164 kts 275°
2026-05-05 10:27 53.43761 -6.28875 591 ft 176 kts 278°
2026-05-05 10:27 53.44058 -6.30849 1168 ft 173 kts 310°
2026-05-05 10:27 53.44915 -6.32229 1780 ft 175 kts 321°
2026-05-05 10:27 53.45889 -6.33644 2025 ft 196 kts 322°
2026-05-05 10:28 53.47189 -6.34587 2233 ft 218 kts 357°
2026-05-05 10:28 53.48697 -6.33885 2543 ft 242 kts 36°
2026-05-05 10:28 53.49442 -6.32458 2930 ft 252 kts 61°
2026-05-05 10:28 53.49851 -6.29558 3687 ft 260 kts 85°
2026-05-05 10:29 53.49798 -6.26496 4491 ft 265 kts 93°
2026-05-05 10:29 53.49632 -6.23402 5345 ft 266 kts 92°
2026-05-05 10:29 53.49473 -6.20277 6147 ft 271 kts 92°
2026-05-05 10:29 53.49314 -6.17101 6838 ft 276 kts 92°
2026-05-05 10:30 53.49150 -6.13865 7527 ft 280 kts 93°
2026-05-05 10:30 53.48982 -6.10585 8224 ft 284 kts 93°
2026-05-05 10:30 53.48808 -6.07255 8919 ft 288 kts 93°
2026-05-05 10:30 53.48628 -6.03877 9625 ft 292 kts 93°
2026-05-05 10:31 53.48446 -6.00459 10275 ft 298 kts 93°
2026-05-05 10:31 53.48257 -5.96866 10448 ft 320 kts 93°
2026-05-05 10:31 53.48057 -5.93011 10580 ft 342 kts 94°
2026-05-05 10:31 53.47844 -5.88906 10707 ft 363 kts 94°
2026-05-05 10:32 53.47614 -5.84608 11055 ft 374 kts 94°
2026-05-05 10:32 53.47374 -5.80232 11592 ft 379 kts 94°
2026-05-05 10:32 53.47129 -5.75801 12203 ft 382 kts 94°
2026-05-05 10:32 53.46882 -5.71325 12799 ft 386 kts 94°
2026-05-05 10:33 53.46633 -5.66816 13364 ft 390 kts 94°
2026-05-05 10:33 53.46380 -5.62257 13954 ft 393 kts 95°
2026-05-05 10:33 53.46124 -5.57678 14477 ft 396 kts 95°
2026-05-05 10:33 53.45862 -5.53059 14972 ft 400 kts 95°
2026-05-05 10:34 53.45594 -5.48393 15489 ft 403 kts 95°
2026-05-05 10:34 53.45322 -5.43698 16011 ft 406 kts 95°
2026-05-05 10:34 53.45050 -5.39026 16487 ft 410 kts 95°
2026-05-05 10:34 53.44773 -5.34252 17017 ft 412 kts 95°
2026-05-05 10:35 53.44495 -5.29453 17534 ft 415 kts 95°
2026-05-05 10:35 53.44209 -5.24608 18003 ft 419 kts 96°
2026-05-05 10:35 53.43917 -5.19731 18493 ft 421 kts 96°
2026-05-05 10:35 53.43633 -5.14823 18909 ft 424 kts 95°
2026-05-05 10:36 53.43421 -5.09875 19319 ft 427 kts 94°
2026-05-05 10:36 53.43267 -5.04891 19738 ft 429 kts 93°
2026-05-05 10:36 53.43141 -4.99872 20140 ft 432 kts 92°
2026-05-05 10:36 53.43018 -4.94822 20532 ft 434 kts 93°
2026-05-05 10:37 53.42882 -4.89758 20926 ft 436 kts 93°
2026-05-05 10:37 53.42729 -4.84666 21299 ft 438 kts 94°
2026-05-05 10:37 53.42561 -4.79551 21668 ft 441 kts 94°
2026-05-05 10:37 53.42384 -4.74415 22029 ft 443 kts 94°
2026-05-05 10:38 53.42201 -4.69249 22373 ft 445 kts 94°
2026-05-05 10:38 53.42017 -4.64063 22715 ft 447 kts 94°
2026-05-05 10:38 53.41835 -4.58855 23054 ft 449 kts 94°
2026-05-05 10:38 53.41652 -4.53623 23395 ft 450 kts 94°
2026-05-05 10:39 53.41468 -4.48365 23720 ft 452 kts 94°
2026-05-05 10:39 53.41280 -4.43085 23987 ft 454 kts 94°
2026-05-05 10:39 53.41088 -4.37860 24257 ft 456 kts 94°
2026-05-05 10:39 53.40892 -4.32550 24525 ft 457 kts 94°
2026-05-05 10:40 53.40693 -4.27221 24777 ft 459 kts 94°
2026-05-05 10:40 53.40490 -4.21869 25040 ft 460 kts 94°
2026-05-05 10:40 53.40288 -4.16516 25279 ft 462 kts 94°
2026-05-05 10:40 53.40081 -4.11124 25509 ft 463 kts 94°
2026-05-05 10:41 53.39868 -4.05736 25790 ft 463 kts 95°
2026-05-05 10:41 53.39649 -4.00337 26030 ft 464 kts 95°
2026-05-05 10:41 53.39429 -3.94934 26270 ft 465 kts 94°
2026-05-05 10:41 53.39207 -3.89516 26479 ft 467 kts 95°
2026-05-05 10:42 53.38755 -3.78638 26889 ft 469 kts 95°
2026-05-05 10:42 53.38528 -3.73239 27063 ft 471 kts 95°
2026-05-05 10:42 53.38223 -3.67770 27243 ft 471 kts 99°
2026-05-05 10:43 53.37495 -3.62427 27484 ft 469 kts 108°
2026-05-05 10:43 53.36335 -3.57328 27727 ft 468 kts 114°
2026-05-05 10:43 53.35050 -3.52324 27988 ft 468 kts 114°
2026-05-05 10:43 53.33656 -3.47413 28261 ft 466 kts 121°
2026-05-05 10:44 53.31880 -3.42903 28505 ft 464 kts 129°
2026-05-05 10:44 53.29791 -3.38801 28760 ft 463 kts 133°
2026-05-05 10:44 53.27664 -3.34771 29015 ft 462 kts 133°
2026-05-05 10:44 53.25535 -3.30741 29278 ft 462 kts 132°
2026-05-05 10:45 53.23411 -3.26731 29559 ft 461 kts 133°
2026-05-05 10:45 53.21307 -3.22778 29821 ft 460 kts 132°
2026-05-05 10:45 53.19185 -3.18790 30111 ft 458 kts 131°
2026-05-05 10:45 53.17073 -3.14820 30380 ft 457 kts 131°
2026-05-05 10:46 53.14970 -3.10871 30608 ft 456 kts 131°
2026-05-05 10:46 53.12866 -3.06927 30824 ft 455 kts 131°
2026-05-05 10:46 53.10761 -3.02988 31030 ft 455 kts 131°
2026-05-05 10:46 53.08657 -2.99051 31234 ft 455 kts 131°
2026-05-05 10:47 53.06552 -2.95122 31437 ft 455 kts 131°
2026-05-05 10:47 53.04445 -2.91207 31646 ft 454 kts 131°
2026-05-05 10:47 53.02333 -2.87293 31858 ft 454 kts 131°
2026-05-05 10:47 53.00225 -2.83385 32060 ft 454 kts 131°
2026-05-05 10:48 52.98126 -2.79480 32274 ft 453 kts 131°
2026-05-05 10:48 52.96030 -2.75580 32510 ft 451 kts 131°
2026-05-05 10:48 52.93942 -2.71712 32803 ft 449 kts 130°
2026-05-05 10:48 52.91860 -2.67865 33012 ft 448 kts 131°
2026-05-05 10:49 52.89773 -2.64018 33059 ft 449 kts 131°
2026-05-05 10:49 52.85593 -2.56353 33057 ft 448 kts 130°
2026-05-05 10:50 52.81352 -2.48791 33057 ft 449 kts 137°
2026-05-05 10:50 52.76315 -2.42725 33054 ft 448 kts 144°
2026-05-05 10:51 52.71130 -2.37016 33033 ft 448 kts 145°
2026-05-05 10:51 52.65951 -2.31306 33039 ft 447 kts 144°
2026-05-05 10:52 52.60776 -2.25620 33034 ft 447 kts 145°
2026-05-05 10:52 52.55590 -2.19961 33028 ft 447 kts 145°
2026-05-05 10:53 52.50408 -2.14279 33033 ft 446 kts 144°
2026-05-05 10:53 52.45284 -2.08572 33038 ft 445 kts 146°
2026-05-05 10:54 52.40201 -2.02905 33032 ft 444 kts 146°
2026-05-05 10:54 52.35087 -1.97232 33015 ft 444 kts 146°
2026-05-05 10:55 52.29958 -1.91583 33015 ft 444 kts 147°
2026-05-05 10:55 52.24826 -1.85957 33031 ft 443 kts 147°
2026-05-05 10:56 52.19706 -1.80349 33019 ft 443 kts 148°
2026-05-05 10:56 52.14577 -1.74743 33001 ft 444 kts 148°
2026-05-05 10:57 52.09450 -1.69148 32997 ft 444 kts 148°
2026-05-05 10:57 52.04318 -1.63572 32996 ft 444 kts 148°
2026-05-05 10:58 51.99183 -1.58013 33002 ft 443 kts 148°
2026-05-05 10:58 51.94094 -1.52516 33004 ft 442 kts 148°
2026-05-05 10:59 51.88979 -1.47008 33006 ft 441 kts 148°
2026-05-05 10:59 51.83869 -1.41514 33008 ft 441 kts 148°
2026-05-05 11:00 51.78757 -1.36040 32998 ft 440 kts 149°
2026-05-05 11:00 51.73647 -1.30575 33000 ft 441 kts 149°
2026-05-05 11:01 51.68531 -1.25126 33005 ft 441 kts 149°
2026-05-05 11:01 51.63413 -1.19691 33004 ft 441 kts 149°
2026-05-05 11:02 51.58295 -1.14268 33004 ft 440 kts 149°
2026-05-05 11:02 51.53175 -1.08863 32999 ft 440 kts 149°
2026-05-05 11:03 51.48057 -1.03467 32995 ft 440 kts 149°
2026-05-05 11:03 51.42944 -0.98080 32991 ft 440 kts 149°
2026-05-05 11:04 51.37818 -0.92709 32963 ft 440 kts 149°
2026-05-05 11:04 51.32684 -0.87349 32988 ft 441 kts 148°
2026-05-05 11:05 51.27552 -0.82002 33002 ft 440 kts 148°
2026-05-05 11:05 51.22471 -0.76714 33010 ft 439 kts 148°
2026-05-05 11:06 51.17356 -0.71408 33006 ft 438 kts 149°
2026-05-05 11:06 51.12240 -0.66121 33000 ft 438 kts 149°
2026-05-05 11:07 51.07123 -0.60854 32995 ft 438 kts 149°
2026-05-05 11:07 51.02005 -0.55590 32975 ft 438 kts 149°
2026-05-05 11:08 50.96893 -0.50339 32972 ft 437 kts 149°
2026-05-05 11:08 50.91781 -0.45108 32970 ft 437 kts 149°
2026-05-05 11:09 50.86667 -0.39881 32969 ft 437 kts 149°
2026-05-05 11:09 50.81551 -0.34672 32967 ft 437 kts 149°
2026-05-05 11:10 50.76436 -0.29479 32966 ft 437 kts 149°
2026-05-05 11:10 50.71315 -0.24298 32966 ft 437 kts 149°
2026-05-05 11:11 50.66189 -0.19126 32964 ft 437 kts 149°
2026-05-05 11:11 50.61065 -0.13969 32964 ft 437 kts 149°
2026-05-05 11:12 50.55945 -0.08812 32966 ft 436 kts 149°
2026-05-05 11:12 50.50832 -0.03682 32964 ft 436 kts 149°
2026-05-05 11:13 50.46579 0.00564 32949 ft 435 kts 149°
2026-05-05 11:13 50.41473 0.05653 32963 ft 434 kts 149°
2026-05-05 11:14 50.36377 0.10712 32971 ft 433 kts 149°
2026-05-05 11:14 50.31288 0.15761 32963 ft 432 kts 149°
2026-05-05 11:15 50.26209 0.20795 32956 ft 432 kts 149°
2026-05-05 11:15 50.21123 0.25805 32950 ft 432 kts 149°
2026-05-05 11:16 50.16070 0.30881 32950 ft 432 kts 148°
2026-05-05 11:16 50.11070 0.36069 32944 ft 432 kts 148°
2026-05-05 11:17 50.06070 0.41252 32942 ft 432 kts 148°
2026-05-05 11:17 50.01048 0.46391 32925 ft 432 kts 148°
2026-05-05 11:18 49.96016 0.51488 32933 ft 431 kts 148°
2026-05-05 11:18 49.90990 0.56589 32935 ft 431 kts 148°
2026-05-05 11:19 49.85980 0.61688 32930 ft 431 kts 146°
2026-05-05 11:19 49.81300 0.67507 32935 ft 432 kts 142°
2026-05-05 11:20 49.76645 0.73371 32922 ft 431 kts 143°
2026-05-05 11:20 49.71987 0.79205 32923 ft 431 kts 142°
2026-05-05 11:21 49.67341 0.85026 32924 ft 430 kts 142°
2026-05-05 11:21 49.62690 0.90828 32910 ft 430 kts 143°
2026-05-05 11:22 49.58037 0.96624 32915 ft 430 kts 143°
2026-05-05 11:22 49.53383 1.02412 32913 ft 429 kts 143°
2026-05-05 11:23 49.48765 1.08135 33011 ft 428 kts 142°
2026-05-05 11:23 49.46448 1.10999 33282 ft 426 kts 143°
2026-05-05 11:23 49.44141 1.13850 33515 ft 425 kts 143°
2026-05-05 11:23 49.41836 1.16696 33732 ft 424 kts 143°
2026-05-05 11:24 49.39540 1.19527 33935 ft 423 kts 143°
2026-05-05 11:24 49.37244 1.22356 34093 ft 423 kts 143°
2026-05-05 11:24 49.34946 1.25183 34228 ft 423 kts 143°
2026-05-05 11:24 49.32648 1.28006 34364 ft 424 kts 143°
2026-05-05 11:25 49.30344 1.30832 34509 ft 424 kts 143°
2026-05-05 11:25 49.28034 1.33665 34680 ft 424 kts 143°
2026-05-05 11:25 49.25730 1.36482 34863 ft 425 kts 143°
2026-05-05 11:26 49.21102 1.42133 34882 ft 425 kts 143°
2026-05-05 11:26 49.16473 1.47777 34879 ft 425 kts 143°
2026-05-05 11:27 49.11844 1.53411 34879 ft 425 kts 143°
2026-05-05 11:27 49.07209 1.59032 34881 ft 426 kts 143°
2026-05-05 11:28 49.02573 1.64637 34874 ft 425 kts 142°
2026-05-05 11:28 48.97959 1.70204 34876 ft 426 kts 142°
2026-05-05 11:29 48.93309 1.75792 34853 ft 426 kts 143°
2026-05-05 11:29 48.88657 1.81381 34854 ft 426 kts 143°
2026-05-05 11:30 48.83995 1.86963 34855 ft 427 kts 143°
2026-05-05 11:30 48.79323 1.92541 34858 ft 427 kts 143°
2026-05-05 11:31 48.74647 1.98112 34867 ft 428 kts 143°
2026-05-05 11:31 48.69970 2.03684 34869 ft 428 kts 143°
2026-05-05 11:32 48.65285 2.09247 34872 ft 428 kts 143°
2026-05-05 11:32 48.60619 2.14761 34872 ft 428 kts 143°
2026-05-05 11:33 48.56011 2.20468 34852 ft 430 kts 136°
2026-05-05 11:33 48.51795 2.26887 34849 ft 430 kts 136°
2026-05-05 11:34 48.47582 2.33288 34834 ft 430 kts 136°
2026-05-05 11:34 48.43357 2.39689 34834 ft 431 kts 136°
2026-05-05 11:35 48.39126 2.46075 34838 ft 430 kts 136°
2026-05-05 11:35 48.34913 2.52413 34828 ft 431 kts 136°
2026-05-05 11:36 48.30667 2.58779 34808 ft 431 kts 136°
2026-05-05 11:36 48.26426 2.65168 34819 ft 432 kts 135°
2026-05-05 11:37 48.22279 2.71727 34836 ft 434 kts 134°
2026-05-05 11:37 48.18178 2.78331 34824 ft 431 kts 134°
2026-05-05 11:38 48.14067 2.84871 34816 ft 431 kts 135°
2026-05-05 11:38 48.09954 2.91344 34812 ft 432 kts 135°
2026-05-05 11:39 48.05807 2.97850 34797 ft 433 kts 135°
2026-05-05 11:39 48.01648 3.04355 34803 ft 433 kts 135°
2026-05-05 11:40 47.97486 3.10859 34808 ft 433 kts 135°
2026-05-05 11:40 47.93307 3.17371 34815 ft 434 kts 135°
2026-05-05 11:41 47.89129 3.23879 34812 ft 435 kts 135°
2026-05-05 11:41 47.84933 3.30385 34818 ft 436 kts 135°
2026-05-05 11:42 47.80723 3.36903 34827 ft 436 kts 135°
2026-05-05 11:42 47.76524 3.43402 34801 ft 435 kts 135°
2026-05-05 11:43 47.72312 3.49879 34812 ft 436 kts 136°
2026-05-05 11:43 47.68122 3.56309 34810 ft 436 kts 136°
2026-05-05 11:44 47.63899 3.62782 34816 ft 437 kts 136°
2026-05-05 11:44 47.59672 3.69253 34818 ft 437 kts 136°
2026-05-05 11:45 47.55432 3.75705 34820 ft 437 kts 136°
2026-05-05 11:45 47.51188 3.82152 34827 ft 437 kts 136°
2026-05-05 11:46 47.46943 3.88589 34835 ft 437 kts 136°
2026-05-05 11:46 47.42694 3.95023 34833 ft 438 kts 136°
2026-05-05 11:47 47.38435 4.01457 34838 ft 438 kts 136°
2026-05-05 11:47 47.34200 4.07834 34838 ft 438 kts 136°
2026-05-05 11:48 47.27800 4.17451 34835 ft 438 kts 137°
2026-05-05 11:48 47.23523 4.23854 34839 ft 438 kts 137°
2026-05-05 11:49 47.19238 4.30248 34845 ft 438 kts 137°
2026-05-05 11:49 47.14951 4.36623 34848 ft 438 kts 137°
2026-05-05 11:50 47.10666 4.42990 34857 ft 439 kts 137°
2026-05-05 11:50 47.06374 4.49364 34854 ft 439 kts 137°
2026-05-05 11:51 47.02081 4.55731 34842 ft 439 kts 138°
2026-05-05 11:51 46.97770 4.62086 34852 ft 440 kts 138°
2026-05-05 11:52 46.93452 4.68426 34860 ft 440 kts 138°
2026-05-05 11:52 46.89120 4.74772 34871 ft 440 kts 138°
2026-05-05 11:53 46.84792 4.81109 34875 ft 441 kts 138°
2026-05-05 11:53 46.80489 4.87404 34865 ft 440 kts 138°
2026-05-05 11:54 46.76151 4.93724 34851 ft 441 kts 139°
2026-05-05 11:54 46.71809 5.00042 34856 ft 441 kts 139°
2026-05-05 11:55 46.67467 5.06348 34870 ft 441 kts 139°
2026-05-05 11:55 46.63117 5.12641 34875 ft 441 kts 139°
2026-05-05 11:56 46.58765 5.18926 34878 ft 440 kts 139°
2026-05-05 11:56 46.54440 5.25148 34860 ft 441 kts 139°
2026-05-05 11:57 46.50078 5.31406 34866 ft 441 kts 139°
2026-05-05 11:57 46.45709 5.37670 34879 ft 441 kts 139°
2026-05-05 11:58 46.41335 5.43925 34882 ft 442 kts 140°
2026-05-05 11:58 46.36951 5.50182 34889 ft 443 kts 140°
2026-05-05 11:59 46.32547 5.56438 34890 ft 443 kts 140°
2026-05-05 11:59 46.28139 5.62690 34874 ft 444 kts 140°
2026-05-05 12:00 46.24478 5.67880 34884 ft 444 kts 140°
2026-05-05 12:00 46.20063 5.74131 34890 ft 444 kts 141°
2026-05-05 12:01 46.15630 5.80368 34905 ft 445 kts 141°
2026-05-05 12:01 46.11192 5.86612 34911 ft 446 kts 141°
2026-05-05 12:02 46.06748 5.92854 34938 ft 446 kts 141°
2026-05-05 12:02 46.02331 5.99047 34923 ft 446 kts 141°
2026-05-05 12:03 45.97877 6.05275 34924 ft 447 kts 142°
2026-05-05 12:03 45.93401 6.11505 34930 ft 447 kts 142°
2026-05-05 12:04 45.88928 6.17721 34936 ft 448 kts 142°
2026-05-05 12:04 45.84449 6.23934 34938 ft 448 kts 142°
2026-05-05 12:05 45.79963 6.30128 34909 ft 448 kts 142°
2026-05-05 12:05 45.75475 6.36325 34918 ft 448 kts 142°
2026-05-05 12:06 45.70976 6.42522 34929 ft 449 kts 142°
2026-05-05 12:06 45.66473 6.48708 34941 ft 449 kts 142°
2026-05-05 12:07 45.62001 6.54840 34942 ft 448 kts 142°
2026-05-05 12:07 45.57486 6.61008 34937 ft 449 kts 143°
2026-05-05 12:08 45.52973 6.67155 34932 ft 449 kts 143°
2026-05-05 12:08 45.48460 6.73303 34958 ft 448 kts 143°
2026-05-05 12:09 45.43941 6.79444 34965 ft 449 kts 143°
2026-05-05 12:09 45.39426 6.85565 34980 ft 448 kts 143°
2026-05-05 12:10 45.34912 6.91677 34969 ft 448 kts 144°
2026-05-05 12:10 45.30421 6.97728 34952 ft 448 kts 144°
2026-05-05 12:11 45.25887 7.03814 34964 ft 449 kts 144°
2026-05-05 12:11 45.21350 7.09904 34961 ft 448 kts 144°
2026-05-05 12:12 45.16818 7.15987 34970 ft 449 kts 144°
2026-05-05 12:12 45.12279 7.22057 34962 ft 449 kts 144°
2026-05-05 12:13 45.07732 7.28121 34968 ft 449 kts 144°
2026-05-05 12:13 45.03180 7.34162 34974 ft 448 kts 144°
2026-05-05 12:14 44.98626 7.40189 34997 ft 448 kts 144°
2026-05-05 12:14 44.94210 7.46379 34975 ft 452 kts 141°
2026-05-05 12:15 44.89935 7.52899 34977 ft 453 kts 140°
2026-05-05 12:15 44.85662 7.59443 34983 ft 453 kts 140°
2026-05-05 12:16 44.81332 7.65895 34977 ft 453 kts 141°
2026-05-05 12:16 44.76974 7.72305 34982 ft 453 kts 141°
2026-05-05 12:17 44.72609 7.78719 34959 ft 453 kts 140°
2026-05-05 12:17 44.68280 7.85094 34968 ft 454 kts 140°
2026-05-05 12:18 44.63911 7.91504 34969 ft 454 kts 140°
2026-05-05 12:18 44.59535 7.97910 34957 ft 454 kts 140°
2026-05-05 12:19 44.55158 8.04301 34962 ft 454 kts 140°
2026-05-05 12:19 44.50775 8.10679 34967 ft 454 kts 140°
2026-05-05 12:20 44.46389 8.17063 34970 ft 455 kts 140°
2026-05-05 12:20 44.42003 8.23431 34973 ft 454 kts 140°
2026-05-05 12:21 44.37608 8.29789 34973 ft 454 kts 140°
2026-05-05 12:21 44.33237 8.36090 34960 ft 454 kts 141°
2026-05-05 12:22 44.28836 8.42434 34954 ft 455 kts 141°
2026-05-05 12:22 44.24433 8.48771 34958 ft 455 kts 141°
2026-05-05 12:23 44.20026 8.55104 34958 ft 455 kts 141°
2026-05-05 12:23 44.15609 8.61429 34958 ft 455 kts 141°
2026-05-05 12:24 44.11190 8.67739 34967 ft 455 kts 141°
2026-05-05 12:24 44.06765 8.74037 34934 ft 455 kts 141°
2026-05-05 12:25 44.02325 8.80339 34946 ft 456 kts 141°
2026-05-05 12:25 43.97900 8.86613 34953 ft 457 kts 141°
2026-05-05 12:26 43.93448 8.92922 34956 ft 458 kts 141°
2026-05-05 12:26 43.88989 8.99230 34963 ft 458 kts 141°
2026-05-05 12:27 43.84522 9.05523 34942 ft 458 kts 141°
2026-05-05 12:27 43.80036 9.11808 34941 ft 459 kts 141°
2026-05-05 12:28 43.75537 9.18103 34953 ft 460 kts 141°
2026-05-05 12:28 43.71034 9.24405 34961 ft 461 kts 141°
2026-05-05 12:29 43.66522 9.30708 34966 ft 461 kts 141°
2026-05-05 12:29 43.62003 9.37011 34959 ft 462 kts 141°
2026-05-05 12:30 43.57474 9.43303 34970 ft 462 kts 141°
2026-05-05 12:30 43.52959 9.49557 34952 ft 463 kts 142°
2026-05-05 12:31 43.47908 9.54794 34962 ft 448 kts 159°
2026-05-05 12:31 43.42354 9.58663 34952 ft 448 kts 160°
2026-05-05 12:32 43.36780 9.62531 34957 ft 449 kts 160°
2026-05-05 12:32 43.31189 9.66427 34970 ft 451 kts 160°
2026-05-05 12:33 43.25612 9.70301 34973 ft 451 kts 160°
2026-05-05 12:33 43.19998 9.74179 34980 ft 452 kts 161°
2026-05-05 12:34 43.14366 9.78065 34983 ft 453 kts 161°
2026-05-05 12:34 43.08758 9.81935 34984 ft 454 kts 161°
2026-05-05 12:35 43.03112 9.85829 34964 ft 454 kts 160°
2026-05-05 12:35 42.97447 9.89714 34951 ft 455 kts 161°
2026-05-05 12:36 42.91790 9.93589 34960 ft 456 kts 161°
2026-05-05 12:36 42.86145 9.97450 34969 ft 456 kts 161°
2026-05-05 12:37 42.80461 10.01325 34977 ft 457 kts 161°
2026-05-05 12:37 42.74767 10.05196 34968 ft 458 kts 161°
2026-05-05 12:38 42.69057 10.09077 34967 ft 459 kts 161°
2026-05-05 12:38 42.63369 10.12931 34974 ft 459 kts 161°
2026-05-05 12:39 42.57641 10.16807 34979 ft 460 kts 161°
2026-05-05 12:39 42.51904 10.20671 34949 ft 460 kts 161°
2026-05-05 12:40 42.46158 10.24543 34967 ft 461 kts 161°
2026-05-05 12:40 42.40410 10.28415 34980 ft 462 kts 161°
2026-05-05 12:41 42.34684 10.32256 34985 ft 462 kts 161°
2026-05-05 12:41 42.28925 10.36115 34990 ft 462 kts 161°
2026-05-05 12:42 42.23164 10.39969 34992 ft 462 kts 161°
2026-05-05 12:42 42.17397 10.43808 35002 ft 462 kts 161°
2026-05-05 12:43 42.11625 10.47642 34992 ft 462 kts 161°
2026-05-05 12:43 42.05864 10.51475 34995 ft 462 kts 161°
2026-05-05 12:44 42.00096 10.55302 34997 ft 462 kts 161°
2026-05-05 12:44 41.94322 10.59110 34988 ft 462 kts 161°
2026-05-05 12:45 41.88587 10.62895 34982 ft 463 kts 161°
2026-05-05 12:45 41.82799 10.66707 34994 ft 463 kts 161°
2026-05-05 12:46 41.77012 10.70517 35001 ft 464 kts 161°
2026-05-05 12:46 41.71216 10.74329 35013 ft 464 kts 161°
2026-05-05 12:47 41.65415 10.78118 35006 ft 464 kts 161°
2026-05-05 12:47 41.59617 10.81897 35018 ft 464 kts 161°
2026-05-05 12:48 41.53820 10.85680 35024 ft 464 kts 161°
2026-05-05 12:48 41.48016 10.89461 35034 ft 464 kts 161°
2026-05-05 12:49 41.43196 10.92602 35021 ft 464 kts 161°
2026-05-05 12:49 41.37395 10.96360 35025 ft 464 kts 161°
2026-05-05 12:50 41.30636 11.00718 35026 ft 464 kts 161°
2026-05-05 12:50 41.25813 11.03831 35035 ft 464 kts 161°
2026-05-05 12:51 41.20005 11.07583 35023 ft 464 kts 161°
2026-05-05 12:51 41.14186 11.11333 35026 ft 465 kts 161°
2026-05-05 12:52 41.08360 11.15065 35027 ft 465 kts 161°
2026-05-05 12:52 41.02526 11.18803 35029 ft 465 kts 161°
2026-05-05 12:53 40.96694 11.22527 35015 ft 465 kts 161°
2026-05-05 12:53 40.90869 11.26244 35023 ft 465 kts 161°
2026-05-05 12:54 40.82124 11.31812 35023 ft 465 kts 161°
2026-05-05 12:55 40.76295 11.35515 35010 ft 465 kts 161°
2026-05-05 12:55 40.70502 11.39187 35031 ft 465 kts 161°
2026-05-05 12:56 40.64673 11.42882 35027 ft 464 kts 161°
2026-05-05 12:56 40.58843 11.46563 35041 ft 464 kts 161°
2026-05-05 12:57 40.53012 11.50233 35029 ft 464 kts 161°
2026-05-05 12:57 40.47184 11.53896 35029 ft 464 kts 161°
2026-05-05 12:58 40.41355 11.57552 35032 ft 464 kts 161°
2026-05-05 12:58 40.35525 11.61210 35043 ft 464 kts 161°
2026-05-05 12:59 40.29733 11.64837 35021 ft 464 kts 161°
2026-05-05 12:59 40.23866 11.68489 35022 ft 464 kts 160°
2026-05-05 13:00 40.15163 11.73904 35044 ft 463 kts 160°
2026-05-05 13:01 40.03526 11.81152 35061 ft 464 kts 160°
2026-05-05 13:01 39.97761 11.84961 35060 ft 464 kts 159°
2026-05-05 13:02 39.92014 11.88828 35060 ft 464 kts 159°
2026-05-05 13:02 39.86267 11.92646 35058 ft 464 kts 159°
2026-05-05 13:03 39.80504 11.96425 35048 ft 463 kts 159°
2026-05-05 13:03 39.74773 12.00156 35058 ft 463 kts 159°
2026-05-05 13:04 39.69019 12.03926 35067 ft 463 kts 159°
2026-05-05 13:04 39.63262 12.07687 35054 ft 464 kts 159°
2026-05-05 13:05 39.57481 12.11452 35031 ft 466 kts 159°
2026-05-05 13:05 39.51685 12.15229 35035 ft 467 kts 159°
2026-05-05 13:06 39.45873 12.19010 35047 ft 468 kts 159°
2026-05-05 13:06 39.40049 12.22792 35043 ft 469 kts 159°
2026-05-05 13:07 39.34213 12.26570 35033 ft 470 kts 159°
2026-05-05 13:07 39.28398 12.30336 35040 ft 471 kts 159°
2026-05-05 13:08 39.22532 12.34120 35056 ft 471 kts 159°
2026-05-05 13:08 39.16665 12.37902 35060 ft 472 kts 159°
2026-05-05 13:09 39.10789 12.41677 35047 ft 472 kts 159°
2026-05-05 13:09 39.04912 12.45454 35049 ft 472 kts 159°
2026-05-05 13:10 38.99022 12.49227 35059 ft 473 kts 159°
2026-05-05 13:10 38.93129 12.53004 35062 ft 473 kts 159°
2026-05-05 13:11 38.87230 12.56766 35053 ft 474 kts 159°
2026-05-05 13:11 38.81317 12.60519 35056 ft 474 kts 159°
2026-05-05 13:12 38.75393 12.64271 35063 ft 475 kts 159°
2026-05-05 13:12 38.69506 12.68004 35065 ft 475 kts 159°
2026-05-05 13:13 38.63574 12.71763 35052 ft 475 kts 159°
2026-05-05 13:13 38.57639 12.75525 35056 ft 475 kts 159°
2026-05-05 13:14 38.51705 12.79269 35054 ft 476 kts 159°
2026-05-05 13:14 38.45766 12.83019 35058 ft 477 kts 158°
2026-05-05 13:15 38.39825 12.86776 35045 ft 477 kts 158°
2026-05-05 13:15 38.33913 12.90497 35060 ft 476 kts 158°
2026-05-05 13:16 38.27967 12.94217 35072 ft 476 kts 158°
2026-05-05 13:16 38.22022 12.97926 35072 ft 476 kts 158°
2026-05-05 13:17 38.16077 13.01637 35051 ft 476 kts 158°
2026-05-05 13:17 38.10137 13.05343 35061 ft 475 kts 158°
2026-05-05 13:18 38.04193 13.09032 35069 ft 475 kts 158°
2026-05-05 13:18 37.98253 13.12717 35078 ft 475 kts 158°
2026-05-05 13:19 37.92321 13.16398 35087 ft 474 kts 158°
2026-05-05 13:19 37.86395 13.20067 35080 ft 473 kts 158°
2026-05-05 13:20 37.80474 13.23720 35091 ft 473 kts 158°
2026-05-05 13:20 37.74566 13.27365 35093 ft 473 kts 158°
2026-05-05 13:21 37.68689 13.30987 35089 ft 472 kts 158°
2026-05-05 13:21 37.62778 13.34614 35091 ft 472 kts 158°
2026-05-05 13:22 37.56857 13.38240 35091 ft 472 kts 158°
2026-05-05 13:22 37.50944 13.41852 35092 ft 472 kts 158°
2026-05-05 13:23 37.45070 13.45440 35092 ft 472 kts 158°
2026-05-05 13:23 37.39162 13.49049 35087 ft 472 kts 158°
2026-05-05 13:24 37.33254 13.52654 35092 ft 471 kts 158°
2026-05-05 13:24 37.30304 13.54447 34965 ft 471 kts 158°
2026-05-05 13:24 37.27332 13.56247 33850 ft 478 kts 157°
2026-05-05 13:25 37.24306 13.58076 32602 ft 485 kts 157°
2026-05-05 13:25 37.21266 13.59918 31644 ft 486 kts 157°
2026-05-05 13:25 37.18211 13.61769 30597 ft 489 kts 157°
2026-05-05 13:25 37.15138 13.63629 29394 ft 493 kts 157°
2026-05-05 13:26 37.12045 13.65495 28238 ft 493 kts 157°
2026-05-05 13:26 37.08921 13.67273 27086 ft 493 kts 159°
2026-05-05 13:26 37.05755 13.68944 25844 ft 494 kts 160°
2026-05-05 13:26 37.02559 13.70540 24762 ft 493 kts 161°
2026-05-05 13:27 36.99397 13.72082 23975 ft 484 kts 161°
2026-05-05 13:27 36.96265 13.73616 23034 ft 480 kts 161°
2026-05-05 13:27 36.93189 13.75153 22265 ft 472 kts 161°
2026-05-05 13:27 36.90165 13.76696 21502 ft 466 kts 160°
2026-05-05 13:28 36.87233 13.78212 20789 ft 460 kts 160°
2026-05-05 13:28 36.84294 13.79736 20071 ft 455 kts 160°
2026-05-05 13:28 36.81382 13.81241 19362 ft 451 kts 160°
2026-05-05 13:28 36.78487 13.82732 18685 ft 447 kts 160°
2026-05-05 13:29 36.75619 13.84203 17971 ft 443 kts 160°
2026-05-05 13:29 36.72783 13.85650 17326 ft 437 kts 160°
2026-05-05 13:29 36.69985 13.87073 16728 ft 431 kts 160°
2026-05-05 13:29 36.67226 13.88476 16140 ft 426 kts 160°
2026-05-05 13:30 36.64497 13.89867 15578 ft 421 kts 160°
2026-05-05 13:30 36.61803 13.91239 15029 ft 416 kts 160°
2026-05-05 13:30 36.59132 13.92598 14487 ft 412 kts 160°
2026-05-05 13:30 36.56489 13.93942 13922 ft 408 kts 160°
2026-05-05 13:31 36.53889 13.95260 13313 ft 404 kts 160°
2026-05-05 13:31 36.51297 13.96572 12712 ft 400 kts 160°
2026-05-05 13:31 36.48798 13.97991 12111 ft 396 kts 155°
2026-05-05 13:31 36.46349 13.99562 11462 ft 393 kts 154°
2026-05-05 13:32 36.43953 14.01106 11161 ft 381 kts 154°
2026-05-05 13:32 36.41651 14.02590 11037 ft 363 kts 154°
2026-05-05 13:32 36.39471 14.03992 10913 ft 348 kts 154°
2026-05-05 13:32 36.37359 14.05349 10784 ft 334 kts 154°
2026-05-05 13:33 36.35331 14.06649 10671 ft 321 kts 154°
2026-05-05 13:33 36.33380 14.07899 10554 ft 309 kts 154°
2026-05-05 13:33 36.31493 14.09104 10400 ft 300 kts 154°
2026-05-05 13:33 36.29652 14.10277 10223 ft 294 kts 154°
2026-05-05 13:34 36.27860 14.11421 10140 ft 294 kts 154°
2026-05-05 13:34 36.26046 14.12581 9876 ft 295 kts 154°
2026-05-05 13:34 36.24193 14.13765 9405 ft 296 kts 154°
2026-05-05 13:34 36.22365 14.14933 9051 ft 293 kts 154°
2026-05-05 13:35 36.20575 14.16074 8664 ft 291 kts 154°
2026-05-05 13:35 36.18770 14.17223 8272 ft 289 kts 154°
2026-05-05 13:35 36.17000 14.18350 7886 ft 287 kts 154°
2026-05-05 13:35 36.15223 14.19481 7492 ft 286 kts 153°
2026-05-05 13:36 36.13461 14.20603 7113 ft 284 kts 153°
2026-05-05 13:36 36.11735 14.21700 6658 ft 276 kts 153°
2026-05-05 13:36 36.10088 14.22747 6179 ft 266 kts 153°
2026-05-05 13:36 36.08435 14.23798 5623 ft 261 kts 153°
2026-05-05 13:37 36.06880 14.24784 5417 ft 243 kts 153°
2026-05-05 13:37 36.05400 14.25721 5019 ft 236 kts 153°
2026-05-05 13:37 36.03945 14.26644 4561 ft 236 kts 153°
2026-05-05 13:37 36.02496 14.27565 4280 ft 233 kts 153°
2026-05-05 13:38 36.01146 14.28642 4037 ft 230 kts 140°
2026-05-05 13:38 36.00016 14.29980 3898 ft 220 kts 136°
2026-05-05 13:38 35.98969 14.31301 3808 ft 209 kts 136°
2026-05-05 13:38 35.97971 14.32552 3647 ft 200 kts 137°
2026-05-05 13:39 35.96997 14.33766 3395 ft 198 kts 138°
2026-05-05 13:39 35.96025 14.34977 3126 ft 198 kts 139°
2026-05-05 13:39 35.95386 14.35772 2950 ft 195 kts 137°
2026-05-05 13:39 35.94139 14.37324 2619 ft 186 kts 138°
2026-05-05 13:40 35.93239 14.38444 2370 ft 182 kts 137°
2026-05-05 13:40 35.92373 14.39522 2135 ft 170 kts 136°
2026-05-05 13:40 35.91830 14.40196 1994 ft 165 kts 137°
2026-05-05 13:40 35.91042 14.41177 1790 ft 156 kts 137°
2026-05-05 13:41 35.90306 14.42091 1579 ft 145 kts 137°
2026-05-05 13:41 35.89617 14.42947 1382 ft 138 kts 137°
2026-05-05 13:41 35.88951 14.43774 1210 ft 134 kts 137°
2026-05-05 13:41 35.88294 14.44589 1025 ft 134 kts 136°
2026-05-05 13:42 35.87638 14.45410 832 ft 132 kts 135°
2026-05-05 13:42 35.86994 14.46228 714 ft 134 kts 138°
2026-05-05 13:42 35.86334 14.47033 556 ft 133 kts 137°
2026-05-05 13:42 35.85681 14.47838 351 ft 133 kts 136°